Wind_Speed
9 9 9 10 10 11 11 11 11 12 12 13 13 14 14 13 13 13 12 11 11 10 9 8 7 7 6 6 6 6 6 6 6 6 5 4 5 5 6 6 7 8 9 11 11 12 12 13 13 13 13 14 15 16 16 17 18 18 19 20 23 26 26 26 26 27 28 30 31 31 30 30 31 31 32 33 34 35 35 37 37 38 39 40 41 42 43 43
9 9 10 10 11 11 11 10 10 10 10 11 11 12 12 12 12 12 11 11 10 10 9 8 8 8 7 7 7 6 7 7 7 8 8 8 8 8 9 9 10 11 12 13 14 14 15 15 16 15 15 16 17 17 18 18 20 19 20 22 25 26 27 28 28 28 29 31 33 33 34 34 34 34 34 34 36 36 37 38 39 40 40 41 42 43 44 45
9 10 10 10 11 11 11 11 10 9 9 8 9 10 10 10 10 10 10 10 10 9 9 9 8 8 8 8 8 7 7 8 9 10 11 11 11 11 12 12 13 13 14 15 16 16 17 17 18 18 18 18 19 20 20 21 21 21 22 25 27 27 28 28 28 29 30 32 33 35 35 36 36 36 36 37 38 38 39 39 40 41 41 42 43 43 44 45
9 10 11 11 11 11 11 10 9 8 7 7 7 8 8 9 9 9 9 8 9 9 9 9 9 9 9 9 9 8 8 9 10 11 12 12 12 13 13 14 15 15 16 17 18 18 19 19 20 20 20 20 21 22 23 23 23 24 26 27 28 28 28 28 29 30 32 33 34 35 35 35 36 37 38 39 39 40 40 40 41 41 42 43 43 44 44 45
10 10 11 11 11 12 11 10 9 8 7 7 7 7 7 7 7 8 8 8 9 9 9 9 9 9 9 10 10 10 10 10 10 11 11 12 13 13 14 15 15 16 17 18 19 19 20 20 20 21 22 22 21 23 24 24 23 26 28 29 29 29 30 30 31 32 33 34 35 35 36 36 37 38 39 40 40 41 41 41 41 42 43 44 44 45 45 46
10 10 11 11 11 12 11 11 9 8 7 7 7 7 7 7 7 7 8 8 9 9 9 9 9 8 9 10 10 10 10 10 11 11 12 12 13 14 14 15 16 17 18 18 19 20 20 20 21 21 23 23 22 23 24 24 25 27 29 29 30 30 31 32 33 33 34 35 36 36 37 38 38 39 40 40 41 42 42 43 43 44 44 45 45 46 47 47
9 11 12 12 12 12 12 11 9 8 7 7 7 7 7 7 8 8 8 8 8 8 7 7 7 7 8 8 8 8 9 9 11 12 12 13 14 14 15 16 17 17 18 19 20 20 20 21 21 22 23 24 23 23 24 24 26 28 29 29 30 30 32 34 34 34 35 35 36 37 37 38 39 39 39 40 41 41 42 43 44 45 45 45 46 47 48 48
10 11 12 13 13 12 12 10 8 7 7 7 7 7 7 7 7 7 7 7 6 5 5 5 5 5 6 7 7 7 8 9 11 12 13 14 14 15 16 17 18 18 19 20 21 21 21 22 22 23 24 24 23 24 24 25 27 28 29 30 31 31 32 33 34 34 35 36 36 37 37 38 38 39 39 40 40 41 42 43 44 45 46 46 46 47 47 48
11 12 13 13 13 12 11 9 8 7 7 7 7 7 7 7 6 5 5 4 4 4 4 4 4 4 5 7 7 7 8 10 12 13 14 15 16 17 18 19 19 20 21 22 22 22 22 22 22 23 24 23 24 24 24 25 27 28 29 31 32 32 32 32 33 34 35 36 37 37 38 38 39 39 40 40 41 42 42 43 44 44 45 46 46 47 47 48
12 13 13 13 13 12 10 7 7 7 8 7 7 7 8 8 8 7 6 5 4 4 4 4 4 5 6 7 8 9 10 12 13 14 16 17 18 19 19 20 21 21 22 22 22 23 23 22 23 23 23 22 22 23 24 26 27 28 29 30 31 32 32 32 33 34 35 36 37 37 37 38 39 40 41 41 42 43 43 44 44 45 45 46 46 47 48 48
14 14 14 14 13 11 8 7 7 7 8 7 7 7 8 8 8 7 7 6 5 5 5 6 6 7 8 9 10 11 12 14 15 16 17 17 18 18 18 18 18 18 19 18 19 19 20 20 21 21 21 20 21 22 24 26 28 29 30 30 31 31 32 33 34 34 35 35 36 36 36 37 38 40 41 42 43 43 44 44 45 45 46 46 47 48 49 49
14 14 15 14 12 9 7 7 7 7 7 6 6 7 8 8 8 8 8 8 8 8 9 9 10 10 11 12 12 13 13 14 14 14 13 13 14 13 14 14 14 14 14 14 14 15 15 16 16 17 18 19 21 22 25 27 29 31 31 31 32 32 33 34 35 35 35 36 36 36 36 37 38 40 41 42 43 44 44 44 45 45 45 46 47 47 48 49
15 15 15 13 10 7 6 7 7 7 6 6 6 7 8 9 9 10 10 11 11 11 12 13 13 13 13 13 12 11 11 10 10 9 9 9 10 10 11 11 11 12 12 13 13 13 14 14 15 16 17 18 20 22 24 27 28 29 30 31 32 32 33 34 34 35 36 37 38 37 37 37 38 40 42 43 43 43 43 44 44 44 45 45 46 47 48 49
16 15 13 10 7 6 7 7 7 7 6 6 7 8 9 9 10 11 11 12 13 13 14 14 14 13 12 11 9 8 7 7 7 8 8 8 8 9 10 11 11 12 13 13 14 14 15 16 16 17 17 18 20 21 23 25 26 27 28 29 30 31 32 32 32 34 35 37 37 38 38 38 39 40 41 42 42 42 43 43 44 44 45 45 46 47 47 48
15 13 11 8 6 6 7 7 6 6 6 7 8 9 10 11 11 12 13 13 13 13 12 11 11 10 9 7 7 7 6 7 7 8 9 10 10 10 11 12 13 14 15 16 16 16 17 18 18 18 19 19 21 22 23 24 26 27 28 28 29 30 31 31 31 32 33 34 35 36 37 38 39 39 40 40 40 41 42 42 43 44 45 45 46 46 47 47
12 10 7 6 6 6 6 6 5 5 6 7 9 10 11 12 12 13 12 12 11 9 8 7 6 6 6 6 6 6 6 7 8 8 10 11 12 13 14 15 16 17 18 18 18 18 19 19 19 20 20 21 22 23 24 26 27 28 29 29 30 31 32 32 33 33 34 34 35 35 36 37 38 38 38 39 40 41 41 42 43 44 45 45 46 46 47 47
8 6 5 5 6 6 5 5 6 6 8 9 10 11 12 12 12 11 10 9 8 7 6 6 5 5 5 6 6 6 7 8 9 10 12 13 14 15 16 17 17 17 17 17 18 18 18 19 19 20 20 21 23 24 25 27 28 29 30 30 31 32 33 33 34 34 35 35 35 36 37 38 38 38 38 39 40 41 42 43 44 45 45 46 46 46 46 47
4 3 4 5 5 4 5 6 7 8 10 10 11 11 10 10 10 9 8 7 7 7 6 6 6 6 6 6 7 8 9 10 11 13 14 15 14 14 15 15 15 16 16 17 17 17 18 18 19 20 20 21 22 23 25 26 28 29 30 30 31 32 33 34 34 35 35 35 36 37 37 38 38 39 39 40 41 42 43 44 44 44 45 45 45 45 45 44
2 3 4 4 4 5 5 7 8 10 11 11 10 9 8 8 8 8 7 7 7 7 6 6 6 7 7 7 8 10 11 12 13 14 14 13 14 14 14 15 16 17 18 19 19 20 20 20 21 21 22 22 23 24 25 26 27 29 30 31 31 32 33 34 34 35 35 36 36 37 38 38 39 40 41 41 42 42 43 43 43 43 42 42 42 42 42 42
2 2 3 4 5 6 7 8 9 9 9 9 8 8 8 8 8 7 7 8 8 7 7 7 7 8 8 9 10 12 12 12 13 13 13 14 15 16 17 18 19 21 21 22 22 23 23 24 24 24 24 24 25 26 26 27 28 29 31 32 32 33 34 34 35 35 35 36 37 38 38 39 40 40 41 41 41 41 41 41 40 40 40 39 40 40 40 41
2 3 3 4 5 7 8 9 8 7 7 7 7 8 8 8 8 8 8 8 8 8 8 7 8 10 9 9 10 11 11 12 12 13 15 16 18 19 20 21 22 22 23 23 24 24 25 25 25 25 26 26 26 27 27 28 29 30 30 31 32 32 33 33 34 34 35 36 37 37 38 38 38 38 38 38 38 38 38 38 37 37 37 37 38 39 40 41
2 3 4 5 7 8 8 7 6 5 5 6 7 7 8 8 9 9 9 8 9 9 8 8 9 10 10 10 10 11 11 11 13 15 17 19 20 21 22 23 23 23 23 23 24 24 24 24 24 25 25 25 26 26 27 27 28 29 30 31 31 32 32 33 33 34 35 35 35 35 36 35 35 34 33 34 34 34 33 34 34 34 35 36 38 39 40 41
3 4 5 6 7 7 6 5 5 4 5 6 6 7 8 9 10 9 9 9 10 10 9 8 9 9 9 10 11 12 14 15 16 18 20 21 22 23 23 23 23 23 23 23 23 23 23 23 24 24 24 24 25 25 26 27 28 29 30 31 32 33 33 33 34 35 35 35 34 34 33 33 32 31 30 31 31 31 31 32 32 34 35 36 37 38 38 39
3 5 6 6 6 5 4 4 4 5 5 6 7 8 8 9 9 9 9 9 9 9 7 8 8 9 10 11 13 15 17 18 19 20 21 22 23 23 23 23 23 23 23 23 23 23 23 23 23 24 24 25 25 26 28 29 30 31 31 32 33 33 33 33 34 34 34 33 32 31 30 29 28 28 28 29 30 30 31 32 32 33 33 34 34 34 35 36
4 5 5 5 4 3 3 4 5 6 6 7 8 8 8 9 9 9 8 8 8 8 8 8 9 10 13 14 15 17 19 20 21 21 22 22 22 22 22 22 23 23 23 22 23 23 23 23 24 25 26 27 28 29 30 31 31 32 32 33 32 32 32 31 31 30 30 29 28 28 27 25 25 26 28 29 30 30 30 30 30 29 30 31 32 34 36 37
4 4 3 3 3 4 4 5 6 7 7 7 8 8 8 8 7 7 7 7 8 8 9 10 11 12 14 16 17 18 19 19 20 20 21 21 21 22 22 22 22 22 23 23 23 24 25 26 27 28 29 30 31 32 32 32 32 31 32 32 31 30 29 27 26 26 26 26 25 25 25 24 24 25 27 28 28 27 27 27 27 29 30 32 34 36 38 39
2 2 3 4 4 4 5 6 6 7 7 7 7 7 6 6 6 6 7 7 8 9 11 12 13 15 16 17 18 18 18 19 19 19 20 21 21 21 21 22 23 23 24 24 25 26 27 28 30 31 32 33 33 32 31 31 30 28 28 28 27 26 25 25 24 24 24 25 25 25 26 25 22 22 23 23 23 24 26 27 29 31 33 34 36 37 39 40
4 4 4 5 5 5 5 6 6 6 6 6 6 6 7 7 7 7 7 9 9 10 12 13 14 16 16 17 17 17 18 19 19 20 20 20 21 21 22 23 23 24 24 25 27 28 29 31 32 33 33 32 31 30 29 28 26 25 24 24 24 23 23 23 23 24 25 26 26 25 25 23 19 19 21 21 23 25 27 29 31 32 34 35 36 38 39 41
5 5 5 5 5 5 6 6 6 6 6 7 7 7 7 7 7 8 8 10 11 12 13 14 15 16 16 16 17 17 18 19 19 20 20 20 21 22 22 23 24 25 25 27 29 30 32 32 33 32 31 29 27 26 24 24 23 21 21 20 21 21 21 21 22 24 25 24 23 22 22 21 18 19 22 23 24 26 28 29 31 33 34 35 37 39 40 42
5 5 5 5 5 5 6 6 7 7 7 7 7 7 7 8 9 9 10 12 13 13 14 15 16 16 16 17 18 18 18 18 18 19 19 20 21 22 23 24 25 26 27 29 31 32 32 32 31 29 26 24 23 21 20 20 20 20 20 20 20 20 20 21 21 21 20 19 18 18 21 23 22 21 23 25 26 27 28 30 31 33 34 36 38 39 41 42
5 4 4 5 5 6 7 7 7 7 7 6 6 7 8 9 9 11 12 13 14 14 15 16 17 18 19 19 19 19 19 19 19 20 20 21 22 22 24 25 26 28 30 31 32 32 31 29 27 24 23 21 20 20 19 18 18 19 19 20 20 20 19 19 17 15 15 17 18 18 21 23 24 25 25 26 26 27 29 31 32 34 35 37 38 40 42 44
4 4 5 6 6 7 7 7 7 6 6 7 7 8 9 10 10 12 12 13 14 15 16 17 19 19 20 20 19 19 19 20 20 21 21 22 23 24 25 27 28 30 31 31 30 29 27 25 24 22 21 20 20 19 19 18 18 18 18 18 17 16 15 12 11 12 13 17 19 20 22 22 23 26 27 27 28 29 31 32 34 36 37 39 41 42 44 46
4 5 7 8 8 8 7 7 7 6 7 8 8 8 9 11 11 12 13 13 14 16 17 18 20 20 20 20 19 19 19 19 20 20 21 22 23 25 26 27 28 30 30 30 28 26 24 23 21 21 20 19 19 18 18 17 17 17 15 14 13 12 11 10 11 12 13 16 20 21 23 24 24 26 27 28 29 30 32 34 36 38 39 41 43 45 46 48
6 8 8 8 8 7 7 7 7 7 7 8 9 9 10 11 12 12 13 14 15 17 18 20 20 20 21 20 20 20 20 20 20 21 22 23 24 25 26 27 28 29 29 28 26 24 23 21 20 19 18 17 17 17 17 15 15 15 12 11 11 11 13 14 14 15 14 15 18 21 24 26 26 26 27 28 29 32 34 36 37 39 41 42 44 46 47 49
8 9 9 8 8 7 7 7 7 7 8 8 9 10 10 11 12 12 14 15 16 18 20 21 21 21 21 20 19 20 20 20 21 22 23 24 25 26 27 28 28 28 28 27 25 24 22 21 20 19 18 17 17 17 16 16 15 15 13 12 13 14 16 17 18 20 19 17 17 19 23 28 27 26 28 29 31 33 36 37 39 41 42 44 46 47 48 49
9 9 8 8 7 7 7 7 7 8 8 9 9 10 11 12 13 13 14 16 17 19 21 22 22 22 21 20 19 19 19 20 21 22 23 24 25 26 26 27 28 28 27 26 25 23 22 21 20 19 19 18 18 17 17 17 16 16 16 16 17 17 18 20 21 22 23 21 19 19 23 29 29 28 30 31 32 35 38 39 41 43 45 46 48 49 50 51
9 8 8 7 7 7 7 8 7 7 8 10 10 11 12 13 13 14 16 18 19 21 22 22 23 22 21 20 19 19 19 20 21 22 23 24 25 26 26 27 27 27 27 26 24 23 22 21 20 20 19 18 18 17 18 19 19 19 19 18 19 20 20 22 23 25 26 25 23 21 24 30 33 31 31 33 34 38 41 42 44 46 47 49 49 51 52 52
9 8 7 6 6 7 7 7 7 8 9 10 11 12 13 13 14 15 17 19 21 22 23 23 23 22 21 20 19 20 20 21 22 23 23 24 25 26 26 27 27 27 27 26 25 24 23 21 21 20 19 18 18 18 17 18 20 20 21 21 22 22 22 23 25 27 29 29 28 26 25 30 36 35 35 37 39 41 44 45 47 48 50 51 51 52 53 54
8 8 6 6 6 7 6 7 8 9 9 11 12 13 14 14 15 16 18 20 22 23 24 24 23 22 21 20 20 20 21 22 23 24 24 25 26 26 26 26 27 27 26 26 25 24 23 22 21 21 20 19 18 18 18 18 19 20 21 22 23 24 24 24 25 28 31 32 33 31 28 30 36 38 39 42 43 44 47 48 49 50 51 53 53 54 55 55
8 7 6 6 6 6 6 7 9 9 11 13 14 14 14 15 16 17 19 21 22 23 24 24 23 22 21 21 21 21 22 22 23 24 25 25 26 27 27 26 26 26 26 26 25 24 24 22 21 21 21 20 19 19 19 18 19 19 21 22 24 25 26 26 26 28 31 34 36 37 33 30 35 40 42 45 46 46 49 49 50 52 52 54 54 55 56 56
7 6 6 6 5 7 8 8 9 11 13 14 13 14 15 16 16 18 20 22 23 24 24 24 24 23 22 22 22 22 23 23 24 25 26 26 26 27 27 27 26 26 26 26 25 25 24 23 22 22 21 21 20 20 20 20 21 21 22 23 25 27 28 29 29 29 31 34 36 40 36 30 35 42 45 47 48 48 50 51 52 53 54 55 56 56 57 57
6 6 6 5 6 8 8 8 10 13 14 13 13 14 15 16 17 19 21 22 23 24 24 24 24 24 23 22 23 23 24 24 25 26 26 27 27 27 27 27 27 26 26 26 25 25 24 23 23 23 22 22 22 22 22 21 22 23 25 25 27 28 30 32 32 31 33 34 37 42 40 33 37 45 47 49 51 50 52 53 54 55 55 56 56 57 57 57
5 5 6 6 7 8 7 10 13 14 14 14 14 15 15 16 18 20 21 22 23 24 25 25 25 24 24 24 24 24 25 25 26 26 27 27 27 28 27 27 27 27 27 27 26 26 25 24 24 23 23 24 24 24 24 24 24 25 26 28 29 30 31 33 34 35 35 36 38 43 43 39 41 46 49 52 53 52 54 55 56 57 56 57 57 57 58 58
5 5 6 7 8 8 9 13 13 13 15 14 14 15 16 17 18 20 21 22 23 24 25 25 25 25 25 25 25 26 26 26 26 27 27 28 28 28 28 28 28 28 27 27 27 27 26 25 25 25 24 24 24 25 26 26 26 26 28 30 31 32 34 34 35 37 37 38 40 44 46 44 44 47 51 54 55 55 55 57 58 58 58 58 58 58 58 59
5 6 7 8 8 8 11 13 13 14 15 15 15 16 17 18 19 20 21 22 23 24 25 25 26 26 26 26 26 26 27 27 27 28 28 29 29 29 29 29 28 28 28 28 27 27 27 27 27 27 26 27 27 28 28 28 27 28 29 31 32 34 36 36 37 38 40 41 43 45 47 48 47 48 52 56 57 57 57 58 59 59 59 58 59 59 59 59
6 7 8 8 7 10 12 13 14 15 15 15 16 17 17 18 19 20 21 22 23 24 25 25 26 26 27 27 27 27 28 28 28 29 29 30 30 30 30 29 29 29 29 29 29 28 28 28 28 28 28 29 29 31 32 31 30 30 31 32 34 36 38 39 40 40 42 46 46 44 48 52 50 50 54 57 57 58 58 58 59 59 59 59 59 59 59 60
7 8 8 8 9 11 13 14 15 16 16 16 17 17 18 19 20 21 22 22 23 24 25 25 26 26 27 27 27 28 28 29 29 30 30 30 31 31 31 30 30 30 30 30 30 30 30 29 30 30 30 30 30 31 34 34 32 33 33 34 35 39 41 42 42 42 44 49 49 46 50 56 53 53 57 58 58 59 59 59 59 59 58 59 59 59 59 60
8 9 8 9 11 12 13 14 16 16 17 17 18 18 19 20 20 21 22 23 24 24 25 25 26 26 27 28 28 29 29 30 31 31 31 32 32 32 32 31 31 31 31 31 30 31 31 30 30 31 31 31 31 32 35 36 35 35 36 36 37 40 44 44 43 44 47 51 52 50 54 57 55 55 58 59 59 60 60 59 59 59 59 60 59 59 60 61
9 10 9 10 12 13 14 15 16 17 18 18 19 19 20 21 21 22 23 24 24 25 25 26 26 27 28 28 29 30 31 31 32 32 32 33 33 33 33 33 32 32 32 32 32 33 33 32 32 32 31 31 31 33 36 37 37 37 37 37 39 43 45 45 45 46 49 52 52 53 56 57 55 57 60 60 60 61 60 59 59 59 60 60 60 59 60 61
10 11 11 10 12 13 14 15 16 17 18 19 20 20 21 21 22 23 24 25 25 25 26 26 27 27 28 29 30 31 32 32 33 33 33 34 34 33 33 34 33 33 33 33 33 33 34 33 33 34 32 30 31 33 36 38 39 39 38 37 40 43 44 46 47 48 50 53 53 55 58 57 56 58 61 61 60 61 60 59 59 59 60 61 60 60 60 61
10 11 11 12 13 14 14 15 17 18 19 20 20 21 22 22 23 24 25 26 26 26 26 27 27 28 29 30 31 32 33 33 33 33 33 34 34 34 34 35 34 34 34 34 33 33 35 35 35 35 33 31 32 34 36 39 41 40 38 38 40 43 46 47 47 48 50 54 55 56 58 58 57 59 61 60 61 61 59 58 58 59 61 61 60 60 60 61
11 11 12 12 13 14 15 16 17 18 20 20 21 22 22 23 24 24 25 26 27 27 27 28 28 29 30 32 33 34 34 34 33 33 34 34 34 34 35 35 35 34 34 34 34 33 34 35 36 37 35 32 33 35 35 38 40 39 38 39 40 42 45 47 46 48 51 54 55 56 57 57 58 59 60 60 60 60 59 58 59 60 61 61 61 60 61 61
Wind_Direction
26 23 22 22 18 18 16 14 14 11 10 11 14 16 17 19 21 22 25 28 29 30 31 30 28 28 25 19 19 17 9 2 354 344 337 327 317 309 304 299 291 285 280 280 281 281 281 281 281 281 282 281 281 281 280 278 276 275 273 271 270 270 271 273 274 275 277 278 278 277 276 275 274 274 273 274 275 275 275 276 276 277 277 278 278 279 279 279
24 21 19 18 16 14 15 15 14 13 11 9 10 10 10 12 13 11 10 10 9 7 7 4 358 354 352 347 343 343 341 334 325 317 312 306 301 296 292 288 284 282 279 279 280 279 279 279 279 280 280 279 279 280 280 277 276 275 272 268 268 269 271 273 275 276 276 276 276 276 276 276 276 275 274 273 273 273 273 273 274 275 275 276 277 277 278 279
25 21 19 16 14 11 12 16 16 15 14 11 9 8 8 7 7 5 2 360 355 352 351 349 345 340 336 330 322 321 319 313 306 302 299 297 296 293 290 287 285 283 281 280 280 279 279 279 280 281 281 281 280 280 279 278 278 277 272 270 270 271 273 274 274 274 272 272 272 273 274 275 275 275 274 273 272 272 272 272 273 274 274 275 275 276 276 277
22 19 16 14 10 9 10 13 14 13 12 12 10 8 6 4 360 358 356 351 345 343 341 338 336 333 328 318 312 312 309 302 299 297 295 295 294 293 292 291 289 288 287 286 284 283 282 283 283 283 282 281 281 280 278 277 278 276 273 273 274 274 275 275 274 273 272 271 271 271 273 273 273 273 273 273 273 273 273 273 273 274 274 275 275 275 276 276
12 13 10 7 4 3 6 7 5 6 9 11 10 6 2 357 350 346 345 339 334 334 333 330 328 326 320 313 310 310 305 298 295 294 293 293 293 293 292 291 290 289 287 286 285 285 285 284 284 282 281 279 278 277 277 277 275 273 273 274 275 275 276 275 274 272 272 272 272 272 273 273 273 274 274 275 275 276 276 276 276 276 275 276 276 276 277 277
2 5 2 360 355 355 357 356 356 359 5 7 4 360 354 346 338 334 331 328 327 327 327 324 324 323 316 312 312 311 306 298 296 296 294 294 294 292 291 290 289 287 286 286 285 284 284 283 282 281 280 278 276 275 276 276 273 271 272 274 275 275 275 273 271 271 271 271 272 273 273 274 274 275 276 276 277 277 277 277 277 277 277 277 277 278 278 278
352 354 351 350 347 346 346 346 351 358 2 2 358 353 346 336 327 325 322 321 323 325 325 324 327 325 316 314 314 313 308 300 298 298 297 296 295 294 292 290 288 287 286 285 284 284 284 284 283 282 280 279 277 274 272 272 271 271 273 273 273 273 273 272 272 272 273 273 273 273 274 275 276 277 277 277 277 276 276 276 277 278 278 278 278 278 278 279
341 343 342 340 338 337 337 340 349 356 359 358 355 351 345 338 327 324 323 326 332 334 336 336 336 327 315 317 315 310 305 299 298 297 296 295 294 294 292 290 289 288 287 285 284 285 285 285 284 282 282 281 280 277 275 272 271 272 273 273 273 271 271 272 273 274 275 275 275 275 276 276 276 277 277 276 276 276 276 276 277 277 278 278 279 279 279 279
331 332 332 331 330 329 330 339 348 350 352 352 354 357 359 359 355 354 351 354 2 1 359 352 341 324 311 312 308 303 298 295 294 294 293 292 291 291 290 290 289 288 287 286 286 285 284 283 283 283 283 284 284 284 282 279 276 275 274 274 274 273 272 272 273 273 274 274 275 276 276 276 277 277 277 276 276 277 277 277 277 278 278 279 279 280 280 280
323 325 324 323 323 325 329 338 345 344 346 347 353 359 5 9 12 15 15 18 20 8 355 340 322 310 302 302 301 300 296 293 293 292 290 289 289 288 288 287 287 286 286 286 286 286 286 286 286 287 288 289 289 288 285 281 279 278 276 275 275 275 276 275 274 273 274 275 276 277 277 278 278 278 278 277 277 278 278 279 279 280 280 280 281 281 282 282
317 318 318 317 318 322 329 337 340 340 341 344 350 353 355 1 3 4 3 1 356 343 333 322 313 309 303 301 300 298 295 293 293 291 291 291 290 289 288 288 287 287 288 289 289 290 291 291 292 293 294 293 289 286 282 280 279 279 279 279 278 278 278 277 276 277 277 277 277 277 277 278 278 277 277 277 278 278 279 280 281 281 282 282 282 282 283 283
311 313 312 313 316 322 327 333 335 335 335 339 344 342 343 346 346 346 344 342 335 329 324 319 315 312 307 304 302 300 297 295 294 293 293 293 293 294 294 294 295 295 296 297 298 299 300 300 298 294 290 286 282 280 279 279 280 282 283 283 282 281 280 279 279 279 278 277 276 276 277 278 278 277 277 278 279 280 281 281 282 282 282 282 282 282 282 283
305 307 309 310 314 319 324 328 329 329 330 334 334 330 332 334 335 334 332 329 326 323 319 317 315 313 309 307 306 304 301 300 300 300 299 297 297 297 297 298 298 299 300 301 303 304 303 300 295 289 287 284 282 282 281 282 284 284 285 284 284 284 283 283 282 280 279 278 277 277 277 277 277 278 278 279 280 281 281 282 282 282 282 282 283 283 283 283
301 304 307 309 311 316 320 321 322 325 326 327 324 322 325 327 327 325 323 321 319 317 314 314 313 312 312 313 313 311 310 311 312 310 307 303 301 299 299 300 300 300 298 298 299 298 296 293 291 291 291 289 287 286 285 285 285 284 284 284 285 285 285 285 284 282 281 279 279 278 277 276 276 277 278 279 280 281 282 282 283 283 283 284 284 284 284 285
299 304 305 305 309 312 312 313 317 321 319 319 317 319 321 322 321 319 317 316 314 312 311 312 313 313 315 317 314 311 315 320 318 314 313 312 310 307 306 304 303 303 302 301 299 297 294 293 292 291 290 289 287 286 286 285 284 284 285 286 286 286 286 286 284 283 282 281 280 279 278 277 277 278 279 280 281 282 283 284 284 285 285 285 286 286 287 287
299 301 299 300 305 305 306 309 314 315 313 314 316 318 318 317 317 316 316 316 317 317 317 320 318 313 313 309 307 311 315 317 315 314 316 315 312 310 309 306 305 305 304 303 301 299 297 296 293 292 290 288 287 285 285 284 283 285 285 285 286 286 286 286 285 284 282 281 281 281 280 279 279 280 282 283 284 285 285 286 286 287 287 288 288 289 289 289
296 293 293 299 301 302 308 311 314 316 315 316 317 317 316 316 318 320 322 325 329 331 333 332 322 317 318 316 315 315 311 311 314 318 318 314 311 310 309 307 307 307 306 305 304 302 301 300 297 295 292 290 288 287 286 286 285 286 286 286 286 286 285 285 284 283 283 283 284 284 283 284 285 286 286 286 286 286 286 287 288 288 289 289 289 289 289 289
287 287 295 299 300 305 312 315 320 320 318 318 319 319 319 322 327 331 335 338 338 339 339 334 329 331 330 323 321 320 318 318 319 319 318 315 314 314 313 312 312 312 311 310 308 306 304 301 298 296 294 290 288 288 287 286 286 285 285 285 285 284 284 284 285 285 286 287 287 287 287 288 289 289 288 288 287 287 288 288 289 289 289 289 289 289 289 290
268 284 294 296 301 307 313 320 321 319 319 320 323 327 330 333 337 340 340 341 340 340 340 334 331 333 330 327 327 325 324 322 320 320 321 323 323 323 322 319 317 316 314 312 310 308 306 302 300 298 295 292 291 289 288 287 286 286 286 286 285 285 286 286 286 287 288 288 288 288 289 289 288 288 288 288 289 289 290 290 290 290 290 290 290 290 291 291
253 275 285 293 301 309 317 320 318 317 319 322 329 337 340 341 341 341 344 345 346 343 339 335 336 338 333 327 325 325 326 327 328 329 328 329 328 325 323 319 317 316 315 312 310 308 306 303 300 298 294 292 291 289 287 286 285 285 285 285 286 286 287 287 288 288 287 287 287 287 287 286 287 288 289 290 291 291 291 291 291 291 291 291 292 292 293 293
249 274 283 297 309 314 316 317 319 321 323 330 339 344 345 346 345 348 352 350 346 342 337 334 334 335 331 327 329 332 335 336 333 330 328 327 325 321 318 317 315 314 312 310 308 306 304 302 299 297 295 293 292 290 288 287 286 286 286 287 287 288 288 288 287 286 286 285 286 287 287 288 289 290 291 291 291 291 292 292 292 292 292 293 294 295 296 297
260 282 296 309 314 314 315 318 324 329 336 347 353 354 354 353 351 352 352 348 343 340 336 331 331 336 340 342 343 341 337 331 325 325 326 324 322 319 317 316 314 312 311 310 307 305 304 302 301 300 299 298 296 295 294 293 292 292 291 291 291 290 290 289 288 287 288 289 289 290 291 291 292 293 293 292 292 292 292 293 293 294 295 297 299 301 301 302
274 293 308 314 313 314 320 326 337 351 2 6 5 2 358 354 349 347 345 343 340 338 337 339 342 349 353 346 342 340 333 328 326 326 325 322 320 320 318 317 315 314 313 311 309 308 307 307 306 305 304 302 301 299 298 297 296 295 294 293 293 292 292 292 291 291 292 292 293 293 294 295 296 297 296 295 295 296 295 296 297 299 302 304 305 306 306 307
287 305 312 315 317 324 335 349 5 16 17 13 7 1 355 348 342 339 340 343 346 349 353 0 2 357 352 344 337 334 331 328 327 325 323 322 321 320 319 318 318 317 316 315 315 315 314 313 311 309 307 305 303 301 300 299 297 296 295 295 294 294 294 294 294 294 294 295 296 297 299 300 300 299 297 297 298 298 298 300 303 306 307 308 308 309 310 311
300 311 317 323 335 352 9 19 23 20 13 7 0 354 349 343 340 342 348 358 8 11 7 5 2 350 343 338 331 330 329 328 326 324 324 323 322 321 321 321 321 320 321 320 320 319 317 315 313 312 310 308 306 305 304 302 301 300 299 299 299 299 299 298 298 299 299 300 301 302 303 303 302 300 299 300 301 303 306 309 310 311 311 311 312 312 312 313
313 325 341 2 21 29 28 25 21 13 6 358 352 353 353 351 354 4 16 23 21 14 3 353 349 342 337 333 330 330 329 327 326 325 324 322 322 323 324 324 322 323 323 322 321 319 318 316 314 312 311 310 308 307 306 305 304 304 303 303 303 303 303 304 304 305 306 305 305 306 305 304 304 303 303 306 309 313 315 315 314 314 314 314 314 314 314 315
1 36 50 49 43 36 28 21 14 6 360 356 359 11 20 23 26 30 31 20 8 4 358 347 341 338 334 331 330 330 328 327 326 325 324 325 327 327 326 326 326 325 325 323 321 319 317 315 313 312 311 310 309 308 308 308 307 307 306 307 307 309 310 311 312 312 312 310 309 309 307 308 310 310 313 318 320 320 318 316 315 316 316 316 316 317 317 317
76 74 65 52 38 29 21 16 12 9 12 20 32 44 47 45 38 30 20 5 357 355 350 343 339 336 333 332 331 330 328 327 327 328 329 330 330 328 328 329 328 326 324 322 320 318 316 315 314 313 312 311 311 312 312 311 311 310 312 313 314 315 317 318 318 316 314 312 313 315 315 318 326 325 324 325 322 319 318 317 318 318 318 319 319 320 320 319
84 72 56 40 27 21 19 22 30 40 48 52 57 57 48 41 29 18 9 358 353 350 345 342 340 337 335 333 331 329 330 330 332 333 333 332 331 331 331 329 327 325 324 322 320 318 317 316 315 314 314 315 316 316 315 314 315 317 319 319 318 321 322 322 320 317 316 317 320 324 325 328 333 328 323 322 321 319 319 320 321 321 322 323 323 323 322 321
77 60 43 31 26 27 36 51 60 65 68 65 60 51 39 28 16 6 3 356 350 349 346 343 340 338 337 335 333 333 334 335 335 335 334 334 334 333 331 329 327 326 325 323 321 320 319 318 318 318 320 321 321 320 320 321 324 325 324 323 324 326 324 321 320 320 321 322 326 330 327 325 326 323 322 323 322 321 322 324 324 324 325 325 324 323 323 323
64 47 38 37 44 55 67 73 73 71 66 57 48 39 29 20 9 2 1 356 350 349 348 345 342 341 340 338 338 337 336 337 337 337 337 337 336 334 332 331 330 329 327 325 324 323 323 323 324 326 328 328 327 328 328 330 331 328 327 327 327 325 322 322 323 324 323 320 324 326 323 322 324 324 325 324 323 324 326 326 326 326 326 325 324 323 323 323
54 50 56 66 73 79 82 81 77 67 54 43 34 25 18 13 6 2 0 355 352 353 351 348 346 344 342 340 339 339 339 340 340 339 339 338 337 336 334 334 332 331 329 329 328 328 328 329 330 332 334 333 334 335 334 334 331 327 327 327 323 319 318 320 318 317 319 319 322 323 321 322 327 327 326 326 326 328 328 327 327 326 325 325 324 324 323 323
63 70 79 86 88 89 87 79 68 56 44 36 26 18 13 8 5 3 360 356 355 356 353 351 349 346 343 341 340 341 341 341 340 340 340 339 338 337 336 335 334 334 334 333 333 334 334 336 337 338 338 337 338 337 334 331 327 325 326 323 318 315 314 315 312 313 322 324 323 325 324 326 332 330 327 327 326 327 328 328 327 326 325 325 324 323 323 322
82 89 92 92 92 90 81 65 52 43 38 31 21 16 14 8 5 3 0 359 358 357 355 353 351 347 345 344 343 342 342 341 341 341 340 339 339 339 339 338 338 338 338 339 339 339 340 341 341 341 340 339 339 336 332 330 327 326 328 325 322 322 321 323 323 322 327 329 326 328 328 328 332 331 326 326 326 327 328 327 325 324 323 323 322 321 320 319
97 97 95 94 91 80 65 51 42 36 32 25 18 17 13 8 6 3 0 360 358 357 355 353 351 349 348 347 344 342 342 341 342 343 342 341 341 342 342 342 342 343 343 343 343 343 344 345 344 343 343 343 341 337 333 333 332 331 334 334 330 329 328 328 329 328 330 334 331 331 330 328 329 329 326 325 326 326 326 325 323 321 321 320 320 319 318 317
101 99 97 93 82 65 50 41 35 30 27 23 20 16 11 7 5 1 359 358 357 356 355 353 351 351 350 347 345 343 342 342 344 344 343 342 343 344 344 345 346 346 347 346 346 347 346 345 344 344 345 345 343 339 336 335 336 335 335 335 332 332 331 330 330 330 330 334 334 332 332 327 325 327 325 322 323 323 322 321 320 319 318 318 318 317 316 316
100 98 94 83 70 53 41 35 28 26 25 23 19 14 10 7 0 357 357 356 356 355 355 353 352 352 350 347 345 344 344 345 345 344 343 343 344 346 346 347 348 349 349 348 348 348 346 345 345 345 345 344 341 340 338 335 335 336 334 333 332 331 331 330 330 330 328 329 330 329 331 328 323 323 323 320 320 321 320 319 319 318 318 318 317 316 316 316
97 90 83 73 60 45 37 31 24 24 24 21 16 12 7 2 356 355 357 356 356 356 355 354 354 352 351 348 346 345 345 346 345 344 344 344 346 347 348 349 350 349 349 348 348 347 346 345 344 344 342 341 339 337 337 335 333 333 332 331 330 329 330 330 328 328 326 325 325 324 329 329 323 322 323 321 321 321 319 319 319 319 319 318 318 317 317 317
86 77 70 58 45 38 35 31 28 25 23 19 15 8 1 356 355 357 358 357 357 356 356 356 355 353 351 348 347 347 347 347 346 345 345 345 347 348 348 349 349 349 349 348 347 346 345 344 342 342 340 338 337 333 333 333 330 329 327 325 326 325 326 327 325 325 323 322 322 321 327 331 323 321 324 322 321 322 320 320 320 320 320 319 318 318 317 317
76 67 60 50 42 39 36 34 29 23 21 19 11 2 357 356 358 360 360 359 359 358 358 357 356 354 352 350 349 348 347 347 346 345 346 346 347 347 347 348 348 348 348 346 345 344 343 342 340 339 337 335 334 330 330 329 325 325 323 321 322 321 321 322 322 323 320 320 320 319 325 334 324 321 323 321 321 322 320 320 320 320 320 319 319 319 318 318
68 59 54 48 44 42 37 32 25 20 20 15 4 358 358 359 1 2 2 1 1 0 360 359 358 356 355 353 351 349 348 347 346 346 346 346 346 346 346 347 346 346 345 344 344 342 341 340 338 336 335 332 331 328 327 325 323 323 320 320 320 319 319 319 319 321 318 318 318 315 322 334 325 319 321 319 319 321 319 319 319 319 319 318 319 319 318 319
60 55 51 46 48 45 32 26 27 22 18 11 2 1 2 3 4 5 4 4 3 2 2 2 1 359 357 355 352 350 349 347 346 347 347 346 345 345 345 345 343 343 343 342 341 340 339 338 336 334 332 330 328 326 324 322 321 319 318 318 317 316 317 316 316 318 316 316 317 312 318 329 323 318 319 317 318 319 318 318 318 318 318 318 319 319 319 320
60 56 53 48 49 44 28 28 29 21 15 10 5 4 5 7 8 7 7 7 6 5 5 5 4 2 0 357 354 352 350 348 347 347 347 346 345 344 343 343 342 341 341 340 339 337 336 336 334 331 329 328 326 323 322 321 319 317 316 315 315 314 315 314 313 314 314 316 314 309 314 323 320 317 317 316 316 318 317 317 317 317 318 318 319 320 320 321
64 59 53 46 44 40 32 31 27 19 16 13 8 8 10 10 10 10 10 10 9 8 8 7 6 5 3 1 358 355 352 351 349 348 347 346 345 344 342 342 341 339 339 338 337 335 334 333 331 328 327 325 323 320 319 319 317 315 313 312 312 311 311 311 311 310 311 312 310 308 314 318 317 317 316 314 316 317 316 316 317 317 318 319 319 320 321 322
65 59 51 45 42 38 35 31 24 21 19 14 12 13 13 13 13 12 13 12 11 11 10 10 9 8 7 5 2 0 358 355 352 350 348 346 345 344 342 342 340 339 338 336 334 333 332 330 328 327 325 323 322 320 319 319 317 314 312 310 309 308 308 308 308 309 309 308 307 310 313 314 316 317 315 314 316 316 316 317 317 318 319 318 319 320 321 322
66 57 51 47 41 37 36 31 26 23 20 17 17 17 16 16 16 15 15 14 13 13 12 12 11 10 9 8 6 5 2 358 356 353 350 348 347 345 343 342 340 339 338 336 333 332 331 328 327 326 325 322 321 320 319 321 319 315 313 311 308 306 306 306 307 308 307 305 308 313 311 310 315 317 314 314 316 315 316 317 317 318 318 318 319 320 321 322
68 61 51 45 41 39 38 33 28 26 23 21 21 20 19 19 18 18 17 15 15 15 14 13 13 12 10 9 7 5 3 0 358 355 353 351 349 347 345 343 341 340 340 338 334 331 331 329 325 325 324 321 318 317 317 318 319 317 314 311 308 304 303 305 306 307 305 304 309 313 309 308 314 315 313 315 315 315 316 316 317 318 317 317 318 320 321 322
66 60 48 43 44 42 38 35 31 28 27 26 25 24 23 21 21 20 18 17 17 16 15 15 14 13 11 9 7 5 2 360 358 356 353 351 349 348 347 345 344 342 340 340 337 333 332 331 326 326 325 320 316 315 314 315 317 316 314 312 308 303 302 304 306 305 304 304 308 311 308 309 314 314 312 314 315 314 316 316 317 318 317 317 318 320 321 322
66 59 48 44 45 42 38 37 35 32 30 30 28 27 26 25 24 22 20 19 18 16 16 15 13 12 10 8 7 4 1 359 357 355 353 351 349 348 347 346 345 343 341 341 339 335 334 332 329 327 326 323 317 313 313 314 314 315 315 313 307 302 302 304 305 305 304 305 307 308 308 311 314 313 312 314 314 315 316 317 317 317 317 317 319 320 321 322
66 59 49 44 44 43 40 39 37 34 33 32 32 30 29 28 27 24 22 21 19 17 15 14 12 10 9 8 6 4 1 358 356 354 352 351 349 348 347 346 344 343 341 341 340 337 334 334 332 328 329 329 320 314 313 312 311 314 315 312 306 304 304 304 304 305 305 305 307 308 308 312 314 312 313 314 314 315 316 317 318 318 317 318 319 320 321 321
62 58 49 45 45 44 40 39 38 36 36 35 34 32 31 29 28 26 24 22 20 17 15 13 11 9 8 7 5 3 1 359 356 354 352 351 349 347 346 345 344 343 341 340 341 339 336 336 334 331 333 334 326 320 317 313 312 315 315 311 309 307 305 303 303 305 305 305 307 308 310 312 313 312 313 314 314 315 316 317 318 318 317 318 319 320 320 321
59 57 51 46 44 42 40 40 40 39 38 37 34 33 31 29 27 26 24 22 19 17 15 13 11 9 7 6 4 3 1 359 356 354 352 351 350 347 346 345 343 342 340 339 340 340 338 336 335 332 334 337 331 325 322 319 319 320 318 314 311 306 302 300 302 305 306 307 308 309 311 313 312 313 314 315 315 315 317 319 319 318 317 318 319 319 320 320
Height
5802 5802 5802 5802 5801 5801 5801 5800 5800 5800 5799 5799 5799 5799 5799 5798 5798 5798 5798 5799 5799 5800 5800 5801 5801 5801 5801 5801 5800 5800 5800 5800 5801 5801 5801 5802 5802 5802 5802 5802 5802 5803 5803 5802 5802 5802 5802 5801 5801 5801 5800 5800 5799 5798 5798 5797 5796 5796 5796 5795 5794 5793 5793 5793 5794 5794 5793 5791 5790 5790 5790 5790 5789 5789 5789 5788 5787 5786 5785 5785 5784 5784 5783 5782 5780 5779 5778 5777
5803 5803 5802 5802 5802 5801 5801 5801 5801 5800 5800 5800 5799 5799 5799 5799 5798 5798 5798 5799 5799 5800 5800 5801 5801 5801 5801 5800 5800 5800 5800 5800 5800 5800 5800 5801 5801 5801 5801 5801 5801 5801 5801 5801 5800 5800 5800 5799 5799 5799 5798 5797 5797 5796 5795 5794 5794 5793 5793 5792 5791 5790 5791 5791 5792 5792 5790 5789 5787 5786 5786 5786 5785 5785 5784 5784 5783 5782 5781 5781 5780 5779 5778 5777 5776 5775 5773 5772
5803 5803 5803 5803 5802 5802 5802 5801 5801 5801 5801 5800 5800 5800 5799 5799 5799 5799 5799 5799 5799 5799 5799 5800 5800 5800 5800 5800 5799 5799 5799 5799 5799 5799 5799 5799 5799 5799 5799 5799 5799 5799 5799 5799 5798 5798 5798 5797 5796 5796 5795 5795 5794 5793 5792 5791 5791 5790 5789 5788 5788 5788 5788 5789 5789 5788 5787 5785 5784 5782 5782 5781 5781 5780 5779 5779 5778 5777 5777 5776 5775 5774 5773 5772 5771 5770 5769 5767
5804 5804 5804 5803 5803 5802 5802 5802 5801 5801 5801 5801 5800 5800 5800 5799 5799 5799 5799 5799 5799 5799 5799 5799 5799 5799 5799 5799 5798 5798 5798 5798 5798 5798 5798 5798 5798 5797 5797 5797 5797 5797 5796 5796 5796 5795 5795 5794 5794 5793 5792 5792 5791 5790 5789 5788 5788 5786 5785 5785 5785 5785 5786 5786 5786 5785 5783 5782 5780 5779 5779 5778 5777 5776 5775 5774 5773 5772 5772 5771 5770 5769 5768 5767 5766 5765 5763 5762
5805 5804 5804 5804 5803 5803 5802 5802 5801 5801 5801 5801 5800 5800 5800 5800 5799 5799 5799 5799 5798 5799 5799 5799 5798 5798 5798 5797 5797 5797 5797 5797 5797 5797 5797 5796 5796 5796 5795 5795 5794 5794 5794 5794 5793 5793 5792 5792 5791 5790 5789 5789 5788 5787 5786 5785 5784 5782 5782 5782 5782 5783 5783 5783 5782 5780 5780 5778 5777 5776 5775 5774 5773 5772 5771 5770 5768 5768 5767 5766 5765 5764 5763 5762 5761 5759 5758 5757
5805 5805 5804 5804 5803 5803 5802 5802 5801 5801 5801 5801 5800 5800 5800 5799 5799 5798 5798 5798 5798 5798 5798 5797 5797 5797 5796 5796 5795 5795 5795 5795 5795 5795 5795 5794 5794 5793 5793 5793 5792 5792 5792 5791 5791 5790 5790 5789 5788 5787 5786 5786 5786 5785 5783 5782 5780 5779 5779 5779 5779 5779 5779 5778 5777 5776 5776 5775 5774 5773 5771 5770 5769 5768 5767 5766 5764 5764 5763 5762 5760 5759 5758 5757 5756 5755 5753 5752
5804 5804 5804 5804 5803 5803 5802 5802 5801 5801 5801 5800 5800 5800 5799 5799 5798 5798 5798 5797 5797 5797 5797 5796 5795 5795 5795 5794 5794 5794 5794 5793 5793 5793 5792 5792 5792 5791 5791 5791 5790 5790 5790 5789 5788 5788 5787 5786 5785 5784 5783 5783 5782 5782 5781 5779 5777 5776 5777 5777 5776 5776 5774 5774 5773 5773 5773 5772 5771 5770 5768 5767 5766 5764 5763 5762 5760 5759 5758 5757 5756 5754 5753 5752 5751 5750 5749 5747
5804 5804 5804 5803 5803 5802 5802 5801 5801 5800 5800 5800 5799 5799 5798 5798 5797 5797 5797 5796 5796 5796 5796 5795 5795 5795 5794 5793 5793 5793 5793 5792 5792 5791 5791 5790 5790 5789 5789 5788 5788 5788 5787 5786 5786 5785 5784 5783 5782 5781 5780 5779 5779 5778 5777 5776 5774 5774 5774 5774 5773 5772 5771 5771 5770 5770 5769 5768 5767 5766 5765 5764 5762 5760 5759 5757 5756 5755 5754 5752 5751 5750 5748 5747 5746 5744 5743 5742
5804 5803 5803 5803 5802 5802 5801 5801 5800 5800 5799 5799 5799 5798 5798 5797 5797 5796 5796 5796 5796 5795 5795 5794 5794 5794 5793 5793 5792 5792 5792 5791 5791 5790 5790 5789 5789 5788 5787 5787 5786 5785 5784 5783 5783 5782 5781 5780 5780 5779 5778 5777 5776 5775 5774 5772 5770 5771 5771 5771 5769 5769 5769 5768 5768 5767 5766 5765 5764 5763 5761 5760 5758 5756 5754 5753 5751 5750 5749 5748 5746 5745 5743 5742 5740 5739 5737 5736
5803 5803 5802 5802 5801 5801 5800 5800 5800 5799 5799 5798 5798 5797 5797 5796 5796 5796 5795 5795 5795 5794 5794 5794 5794 5793 5793 5792 5791 5791 5791 5790 5789 5789 5788 5788 5787 5786 5786 5785 5784 5783 5782 5781 5781 5780 5779 5778 5777 5776 5776 5775 5773 5772 5770 5768 5767 5767 5768 5768 5767 5766 5766 5765 5764 5764 5763 5762 5761 5759 5758 5756 5754 5752 5749 5748 5747 5745 5744 5743 5741 5740 5739 5737 5735 5733 5731 5730
5802 5802 5801 5801 5800 5800 5800 5799 5799 5798 5798 5797 5797 5796 5796 5795 5795 5795 5794 5794 5794 5793 5793 5793 5792 5792 5791 5791 5790 5790 5789 5788 5788 5787 5787 5786 5785 5784 5784 5783 5782 5781 5780 5780 5779 5778 5777 5776 5775 5774 5773 5772 5771 5768 5766 5764 5763 5763 5763 5764 5764 5764 5762 5761 5761 5760 5760 5758 5757 5756 5755 5752 5750 5747 5744 5743 5742 5741 5740 5738 5737 5735 5733 5732 5730 5728 5726 5724
5802 5801 5801 5800 5800 5799 5799 5799 5798 5798 5797 5797 5796 5796 5795 5795 5794 5794 5793 5793 5792 5792 5791 5791 5790 5790 5789 5789 5788 5788 5787 5787 5786 5785 5785 5784 5783 5783 5782 5781 5780 5779 5779 5778 5777 5776 5775 5774 5773 5772 5771 5769 5767 5765 5762 5760 5760 5760 5760 5760 5760 5760 5758 5758 5757 5757 5756 5754 5752 5752 5751 5749 5745 5741 5740 5739 5738 5737 5735 5733 5732 5730 5728 5726 5724 5723 5721 5718
5801 5801 5800 5799 5799 5799 5798 5798 5798 5797 5797 5796 5796 5795 5795 5794 5793 5793 5792 5792 5791 5790 5789 5789 5788 5788 5787 5787 5786 5786 5785 5785 5784 5784 5783 5783 5782 5781 5781 5780 5779 5778 5777 5776 5775 5774 5773 5772 5771 5769 5768 5766 5764 5763 5760 5758 5757 5757 5757 5755 5755 5755 5754 5754 5753 5752 5751 5749 5748 5748 5747 5745 5740 5737 5736 5735 5734 5732 5730 5728 5726 5724 5723 5721 5719 5718 5716 5714
5800 5800 5799 5799 5798 5798 5798 5797 5797 5796 5796 5795 5795 5795 5794 5793 5792 5792 5791 5790 5789 5788 5788 5787 5786 5786 5785 5785 5785 5785 5784 5783 5783 5783 5782 5782 5781 5780 5779 5778 5777 5776 5776 5775 5774 5773 5771 5770 5768 5767 5765 5764 5762 5760 5758 5756 5755 5754 5753 5752 5751 5751 5750 5750 5749 5748 5747 5745 5744 5743 5742 5740 5737 5734 5733 5731 5729 5728 5726 5724 5722 5720 5718 5716 5715 5713 5711 5709
5800 5799 5798 5798 5798 5798 5797 5797 5796 5796 5795 5795 5794 5794 5793 5792 5791 5790 5790 5789 5788 5787 5786 5786 5785 5785 5784 5784 5784 5783 5783 5782 5782 5781 5781 5780 5779 5778 5777 5776 5775 5774 5773 5772 5771 5770 5768 5767 5766 5765 5763 5762 5760 5758 5756 5755 5753 5751 5750 5749 5749 5747 5746 5746 5745 5744 5742 5741 5739 5738 5737 5735 5733 5732 5730 5728 5726 5723 5721 5719 5717 5715 5714 5712 5710 5708 5707 5705
5799 5798 5798 5797 5797 5797 5796 5796 5796 5795 5795 5794 5794 5793 5792 5791 5790 5789 5788 5787 5787 5786 5785 5785 5785 5784 5784 5784 5783 5782 5782 5781 5781 5780 5779 5778 5777 5776 5775 5774 5772 5771 5770 5769 5768 5767 5766 5765 5763 5762 5761 5759 5757 5755 5754 5752 5750 5749 5748 5746 5745 5744 5743 5742 5740 5739 5738 5736 5735 5734 5732 5730 5728 5728 5726 5723 5721 5719 5717 5714 5712 5711 5709 5707 5705 5703 5701 5699
5798 5797 5797 5797 5797 5796 5796 5795 5795 5795 5794 5793 5793 5792 5791 5790 5789 5788 5787 5786 5785 5785 5785 5784 5784 5784 5783 5783 5782 5781 5781 5780 5779 5778 5777 5776 5775 5774 5772 5771 5770 5769 5768 5767 5766 5764 5763 5762 5760 5759 5758 5756 5754 5752 5751 5749 5747 5745 5744 5743 5742 5740 5739 5738 5736 5735 5733 5732 5731 5729 5727 5725 5723 5722 5720 5718 5716 5714 5712 5710 5708 5706 5704 5702 5700 5698 5696 5694
5797 5797 5796 5796 5796 5796 5795 5795 5794 5793 5793 5792 5791 5791 5789 5788 5787 5787 5786 5785 5785 5784 5784 5783 5783 5782 5782 5781 5781 5780 5779 5778 5777 5776 5775 5774 5773 5772 5770 5769 5768 5767 5766 5764 5763 5762 5761 5759 5758 5756 5755 5754 5752 5750 5748 5746 5744 5742 5741 5740 5739 5737 5735 5734 5732 5730 5729 5728 5726 5724 5722 5720 5718 5717 5715 5713 5711 5709 5707 5705 5703 5701 5699 5697 5695 5693 5691 5689
5796 5796 5796 5795 5795 5795 5795 5794 5793 5793 5792 5791 5790 5789 5788 5787 5786 5786 5785 5785 5784 5784 5783 5783 5782 5782 5781 5780 5779 5778 5777 5776 5775 5774 5773 5772 5771 5769 5768 5767 5766 5765 5763 5762 5761 5760 5758 5756 5755 5753 5752 5750 5749 5747 5745 5743 5741 5739 5737 5736 5735 5733 5732 5730 5728 5727 5725 5723 5721 5719 5717 5716 5714 5712 5710 5708 5706 5704 5702 5700 5698 5697 5695 5693 5691 5689 5687 5685
5796 5796 5795 5795 5795 5794 5794 5794 5793 5792 5791 5790 5789 5788 5787 5787 5786 5785 5785 5784 5784 5783 5783 5782 5781 5781 5780 5779 5778 5777 5776 5775 5774 5772 5771 5770 5769 5768 5766 5765 5763 5762 5761 5759 5758 5756 5755 5753 5752 5750 5749 5747 5746 5744 5742 5740 5738 5736 5734 5732 5731 5730 5728 5726 5724 5723 5721 5719 5717 5715 5714 5711 5710 5708 5706 5704 5701 5699 5698 5696 5694 5692 5690 5688 5686 5684 5682 5680
5795 5795 5795 5795 5794 5794 5793 5793 5792 5791 5790 5789 5788 5787 5787 5786 5785 5785 5784 5784 5783 5783 5782 5781 5781 5780 5779 5778 5777 5776 5775 5773 5772 5771 5770 5769 5767 5766 5765 5763 5762 5760 5758 5757 5755 5753 5752 5751 5749 5747 5746 5744 5742 5740 5739 5737 5735 5733 5731 5729 5728 5727 5724 5723 5721 5719 5717 5715 5713 5711 5709 5707 5705 5703 5701 5699 5697 5695 5693 5692 5690 5688 5686 5684 5682 5680 5678 5675
5795 5795 5794 5794 5794 5793 5792 5791 5791 5790 5789 5788 5788 5787 5786 5785 5785 5784 5784 5783 5783 5782 5781 5781 5780 5779 5778 5777 5776 5775 5774 5773 5772 5770 5769 5767 5766 5764 5763 5761 5760 5758 5756 5755 5753 5751 5750 5748 5746 5745 5742 5741 5739 5737 5735 5733 5731 5729 5727 5725 5724 5722 5721 5719 5716 5714 5712 5711 5709 5707 5705 5703 5701 5699 5697 5695 5693 5692 5690 5688 5686 5684 5682 5680 5677 5675 5673 5670
5794 5794 5794 5793 5792 5792 5791 5791 5790 5790 5789 5788 5788 5787 5786 5785 5784 5784 5783 5783 5782 5782 5781 5780 5779 5778 5777 5776 5775 5774 5773 5772 5770 5769 5767 5766 5764 5762 5761 5759 5757 5756 5754 5752 5751 5749 5747 5745 5743 5742 5740 5737 5735 5733 5731 5729 5727 5725 5723 5721 5719 5718 5717 5714 5712 5710 5708 5706 5704 5702 5701 5699 5697 5695 5693 5691 5690 5688 5686 5685 5682 5680 5678 5675 5673 5670 5668 5665
5794 5793 5793 5792 5792 5791 5791 5791 5790 5789 5789 5788 5787 5787 5786 5785 5784 5784 5783 5783 5782 5781 5781 5780 5779 5778 5777 5776 5775 5773 5772 5770 5769 5767 5766 5764 5762 5760 5759 5757 5755 5753 5751 5749 5748 5746 5744 5742 5740 5738 5736 5734 5732 5730 5728 5726 5723 5721 5719 5717 5715 5713 5712 5710 5707 5706 5704 5702 5700 5698 5697 5695 5693 5692 5690 5688 5686 5685 5682 5681 5678 5676 5674 5671 5669 5666 5664 5661
5793 5792 5792 5791 5791 5791 5791 5790 5790 5789 5788 5788 5787 5787 5786 5785 5784 5784 5783 5783 5782 5781 5780 5780 5779 5778 5777 5775 5774 5772 5771 5769 5767 5766 5764 5762 5760 5759 5757 5755 5753 5751 5749 5747 5745 5743 5741 5739 5737 5735 5733 5731 5729 5726 5724 5721 5719 5717 5714 5713 5711 5709 5707 5706 5703 5701 5700 5698 5696 5695 5694 5692 5690 5688 5686 5684 5682 5680 5678 5676 5674 5672 5670 5668 5665 5663 5660 5658
5792 5792 5792 5791 5791 5791 5790 5790 5789 5789 5788 5787 5787 5786 5786 5785 5784 5784 5783 5783 5782 5781 5781 5780 5779 5778 5776 5775 5773 5771 5769 5768 5766 5764 5762 5761 5759 5757 5755 5753 5751 5749 5747 5745 5743 5741 5738 5736 5734 5732 5729 5727 5725 5722 5720 5717 5715 5713 5710 5708 5707 5705 5704 5702 5700 5698 5696 5695 5693 5692 5691 5690 5687 5684 5682 5680 5678 5676 5674 5672 5670 5668 5666 5664 5661 5659 5656 5653
5792 5792 5792 5791 5791 5791 5790 5790 5789 5789 5788 5787 5787 5786 5786 5785 5785 5784 5784 5783 5782 5781 5781 5779 5778 5777 5775 5774 5772 5770 5768 5766 5765 5763 5761 5759 5757 5755 5753 5751 5749 5747 5745 5742 5740 5738 5736 5733 5731 5729 5726 5723 5721 5718 5716 5714 5711 5709 5707 5705 5703 5701 5700 5699 5697 5695 5693 5691 5690 5689 5687 5686 5684 5681 5679 5677 5675 5672 5671 5669 5667 5665 5662 5660 5657 5654 5651 5648
5792 5792 5792 5792 5791 5791 5790 5790 5789 5789 5788 5787 5787 5787 5786 5786 5785 5785 5784 5783 5782 5781 5780 5779 5778 5776 5774 5772 5771 5769 5767 5765 5763 5761 5759 5757 5755 5753 5751 5749 5747 5745 5742 5740 5738 5735 5733 5730 5728 5725 5722 5720 5717 5715 5712 5710 5708 5706 5704 5702 5700 5698 5697 5695 5694 5692 5690 5688 5686 5685 5683 5682 5680 5677 5675 5674 5672 5670 5668 5665 5663 5661 5658 5656 5653 5650 5647 5643
5792 5792 5792 5792 5791 5791 5790 5790 5789 5788 5788 5788 5788 5787 5787 5786 5786 5785 5784 5783 5782 5781 5780 5778 5777 5775 5773 5772 5770 5768 5766 5763 5761 5759 5758 5756 5754 5752 5749 5747 5745 5743 5741 5738 5735 5732 5729 5727 5724 5721 5719 5716 5714 5712 5710 5708 5706 5704 5702 5700 5698 5696 5694 5693 5691 5689 5687 5684 5682 5681 5678 5677 5677 5674 5672 5671 5669 5667 5665 5662 5660 5657 5654 5651 5648 5645 5641 5638
5792 5792 5792 5792 5791 5790 5790 5789 5789 5789 5788 5788 5788 5788 5787 5787 5786 5785 5784 5783 5782 5780 5779 5777 5776 5774 5772 5770 5768 5766 5764 5762 5760 5759 5757 5754 5752 5750 5748 5746 5743 5741 5738 5735 5732 5729 5726 5723 5721 5718 5716 5714 5711 5710 5708 5705 5703 5701 5699 5698 5696 5694 5692 5691 5689 5687 5684 5682 5681 5679 5676 5674 5673 5672 5670 5668 5666 5664 5661 5659 5656 5653 5650 5647 5644 5640 5637 5634
5793 5792 5792 5791 5791 5790 5790 5790 5789 5789 5789 5789 5788 5788 5787 5787 5786 5785 5784 5782 5781 5780 5778 5776 5775 5772 5771 5768 5766 5764 5762 5761 5759 5757 5755 5753 5751 5749 5746 5744 5741 5738 5735 5732 5729 5726 5723 5720 5717 5715 5713 5711 5709 5707 5705 5703 5701 5699 5697 5696 5694 5692 5691 5689 5687 5686 5684 5681 5680 5678 5675 5673 5671 5669 5667 5665 5662 5660 5657 5655 5652 5649 5646 5643 5640 5637 5633 5629
5793 5792 5792 5791 5791 5790 5790 5790 5790 5790 5790 5789 5789 5788 5787 5787 5786 5784 5783 5782 5781 5779 5777 5775 5773 5771 5769 5767 5765 5763 5761 5759 5757 5755 5753 5751 5749 5746 5744 5741 5738 5735 5732 5729 5726 5723 5720 5718 5715 5713 5711 5709 5707 5705 5703 5701 5700 5698 5696 5695 5693 5692 5691 5689 5687 5685 5683 5680 5678 5676 5673 5671 5669 5666 5663 5661 5658 5656 5654 5651 5648 5645 5642 5639 5635 5632 5628 5624
5792 5792 5792 5791 5791 5791 5791 5791 5791 5791 5790 5790 5789 5788 5787 5786 5785 5784 5783 5781 5780 5778 5777 5774 5772 5770 5768 5766 5764 5762 5760 5758 5756 5754 5752 5750 5748 5745 5742 5740 5737 5733 5730 5727 5724 5721 5718 5716 5713 5711 5709 5707 5705 5703 5702 5700 5699 5697 5696 5694 5693 5692 5690 5689 5687 5685 5683 5679 5676 5673 5670 5668 5667 5663 5660 5658 5655 5653 5650 5647 5644 5641 5637 5634 5630 5626 5623 5619
5792 5792 5792 5792 5792 5792 5792 5791 5791 5791 5790 5790 5789 5788 5787 5786 5785 5784 5782 5781 5779 5777 5776 5773 5771 5769 5767 5764 5762 5760 5758 5757 5755 5753 5751 5748 5746 5743 5741 5738 5735 5732 5728 5725 5722 5719 5716 5714 5712 5710 5708 5706 5704 5702 5700 5699 5698 5696 5695 5693 5692 5690 5688 5685 5684 5681 5680 5678 5674 5671 5667 5664 5663 5661 5657 5655 5652 5649 5646 5643 5640 5636 5633 5630 5626 5622 5618 5614
5792 5792 5792 5792 5792 5792 5792 5792 5792 5791 5791 5790 5789 5788 5787 5786 5785 5783 5782 5780 5779 5777 5774 5772 5770 5768 5765 5763 5761 5759 5757 5755 5753 5751 5749 5746 5744 5741 5738 5736 5733 5730 5726 5723 5720 5717 5715 5712 5710 5708 5706 5704 5702 5700 5699 5697 5696 5694 5692 5691 5689 5687 5685 5682 5680 5678 5676 5675 5672 5669 5666 5662 5660 5658 5654 5651 5649 5645 5642 5639 5636 5633 5629 5626 5622 5618 5614 5610
5793 5793 5793 5793 5793 5793 5793 5792 5792 5791 5791 5790 5789 5788 5787 5786 5784 5783 5781 5780 5778 5776 5773 5771 5769 5766 5764 5762 5760 5759 5756 5754 5752 5750 5748 5745 5742 5740 5737 5734 5731 5728 5725 5722 5719 5716 5714 5711 5709 5707 5705 5702 5701 5699 5697 5695 5694 5692 5690 5688 5686 5684 5682 5679 5677 5674 5672 5671 5669 5667 5663 5659 5656 5655 5652 5648 5646 5642 5639 5636 5633 5629 5625 5622 5618 5614 5609 5605
5793 5793 5794 5794 5794 5793 5793 5793 5792 5792 5791 5790 5789 5788 5787 5785 5784 5782 5781 5779 5777 5775 5772 5770 5768 5765 5763 5761 5759 5758 5756 5753 5751 5749 5747 5744 5741 5739 5736 5733 5730 5727 5724 5721 5718 5716 5713 5711 5708 5706 5703 5701 5699 5697 5695 5693 5691 5689 5687 5686 5684 5682 5680 5677 5674 5671 5668 5667 5665 5663 5661 5656 5652 5651 5649 5646 5643 5640 5636 5632 5629 5625 5621 5617 5613 5608 5604 5599
5794 5794 5794 5794 5794 5794 5793 5793 5793 5792 5791 5790 5789 5788 5786 5785 5784 5782 5780 5778 5776 5773 5771 5769 5766 5764 5762 5760 5758 5756 5754 5752 5750 5748 5745 5742 5740 5737 5734 5731 5729 5726 5723 5720 5718 5715 5712 5710 5707 5705 5702 5700 5698 5696 5694 5692 5689 5687 5685 5683 5681 5679 5677 5675 5672 5669 5665 5662 5661 5660 5658 5654 5648 5646 5645 5641 5639 5636 5632 5628 5624 5620 5616 5611 5607 5603 5598 5593
5795 5795 5795 5795 5794 5794 5794 5793 5792 5792 5791 5790 5788 5787 5786 5785 5783 5781 5779 5777 5775 5772 5770 5767 5765 5763 5761 5759 5757 5755 5753 5751 5748 5746 5744 5741 5738 5736 5733 5730 5727 5725 5722 5719 5717 5714 5711 5709 5706 5704 5701 5699 5697 5695 5693 5691 5688 5686 5683 5681 5679 5677 5675 5673 5670 5667 5663 5659 5657 5655 5655 5652 5645 5641 5640 5636 5633 5630 5626 5622 5618 5614 5610 5605 5601 5596 5592 5587
5796 5796 5795 5795 5795 5794 5794 5793 5793 5792 5791 5789 5788 5787 5785 5784 5782 5780 5778 5776 5774 5771 5769 5766 5764 5762 5760 5758 5756 5753 5751 5749 5747 5745 5742 5740 5737 5734 5732 5729 5726 5724 5721 5718 5716 5713 5710 5708 5705 5703 5700 5698 5696 5694 5692 5690 5687 5685 5683 5680 5677 5675 5672 5670 5668 5666 5661 5657 5653 5650 5650 5649 5642 5637 5635 5631 5628 5625 5620 5616 5613 5608 5604 5599 5595 5590 5585 5581
5796 5796 5796 5795 5795 5794 5794 5794 5793 5792 5790 5789 5788 5786 5785 5783 5781 5779 5777 5775 5773 5770 5768 5766 5763 5761 5759 5756 5754 5752 5750 5748 5746 5743 5741 5738 5736 5733 5730 5728 5725 5722 5720 5717 5714 5712 5709 5707 5704 5702 5699 5697 5695 5693 5690 5688 5686 5684 5681 5678 5675 5672 5669 5667 5665 5663 5659 5655 5651 5646 5645 5646 5640 5633 5631 5626 5623 5620 5615 5610 5607 5602 5598 5593 5588 5584 5579 5574
5797 5796 5796 5796 5795 5795 5794 5794 5792 5791 5790 5789 5787 5786 5784 5782 5780 5778 5776 5774 5772 5769 5767 5765 5762 5760 5758 5755 5753 5751 5749 5747 5744 5742 5739 5737 5734 5732 5729 5726 5724 5721 5718 5716 5713 5711 5708 5705 5703 5700 5698 5695 5693 5691 5689 5686 5684 5681 5679 5676 5673 5670 5666 5663 5660 5659 5656 5652 5648 5642 5639 5641 5636 5629 5625 5621 5617 5614 5609 5604 5600 5596 5592 5587 5582 5577 5572 5567
5797 5797 5797 5796 5795 5795 5795 5793 5792 5791 5790 5788 5787 5785 5783 5782 5780 5778 5776 5773 5771 5769 5766 5764 5761 5759 5757 5754 5752 5750 5748 5745 5743 5740 5738 5735 5733 5730 5727 5725 5722 5719 5717 5714 5712 5709 5706 5704 5701 5699 5696 5694 5691 5689 5687 5684 5682 5679 5676 5673 5670 5667 5664 5660 5656 5654 5651 5649 5645 5638 5633 5634 5632 5626 5620 5615 5611 5608 5603 5598 5594 5590 5585 5580 5575 5570 5565 5560
5798 5797 5797 5796 5796 5795 5794 5793 5792 5791 5789 5788 5786 5785 5783 5781 5779 5777 5775 5773 5770 5768 5765 5763 5761 5758 5756 5753 5751 5749 5746 5744 5742 5739 5736 5734 5731 5728 5726 5723 5720 5718 5715 5712 5710 5707 5705 5702 5700 5697 5695 5693 5690 5687 5685 5682 5680 5677 5674 5670 5667 5664 5661 5657 5653 5650 5647 5645 5641 5634 5627 5627 5627 5622 5615 5610 5606 5603 5598 5592 5587 5583 5578 5573 5568 5563 5559 5554
5798 5798 5797 5796 5796 5795 5794 5793 5792 5790 5789 5787 5786 5784 5782 5780 5779 5776 5774 5772 5770 5767 5765 5763 5760 5758 5755 5753 5750 5748 5745 5743 5740 5737 5735 5732 5729 5727 5724 5721 5719 5716 5713 5711 5708 5706 5703 5700 5698 5695 5693 5690 5688 5685 5683 5680 5678 5674 5671 5668 5664 5661 5658 5654 5650 5646 5642 5638 5635 5630 5624 5621 5622 5617 5610 5604 5600 5596 5592 5587 5581 5576 5571 5566 5562 5557 5552 5547
5798 5798 5797 5797 5796 5795 5793 5793 5791 5790 5788 5787 5785 5783 5782 5780 5778 5776 5774 5772 5769 5767 5765 5762 5760 5757 5755 5752 5750 5747 5744 5742 5739 5736 5734 5731 5728 5725 5722 5719 5717 5714 5712 5709 5706 5704 5701 5698 5695 5693 5690 5687 5685 5682 5679 5677 5675 5671 5668 5664 5660 5657 5653 5650 5646 5642 5638 5631 5629 5628 5620 5614 5616 5613 5604 5599 5595 5590 5586 5582 5576 5570 5565 5560 5555 5550 5545 5540
5799 5798 5798 5797 5796 5794 5793 5792 5791 5790 5788 5786 5785 5783 5781 5779 5777 5775 5773 5771 5769 5767 5764 5762 5759 5757 5754 5752 5749 5747 5744 5741 5738 5735 5732 5729 5726 5723 5720 5717 5715 5712 5710 5707 5704 5701 5699 5696 5693 5690 5688 5684 5682 5679 5676 5674 5671 5668 5665 5661 5657 5652 5648 5645 5642 5638 5634 5626 5622 5623 5616 5608 5609 5607 5598 5594 5590 5584 5580 5576 5570 5565 5560 5554 5549 5544 5539 5533
5799 5798 5798 5797 5796 5795 5794 5792 5791 5789 5788 5786 5784 5783 5781 5779 5777 5775 5773 5771 5769 5766 5764 5762 5759 5757 5754 5751 5749 5746 5743 5740 5737 5734 5731 5728 5725 5721 5718 5716 5713 5710 5707 5705 5702 5698 5696 5694 5691 5688 5686 5682 5679 5676 5673 5670 5668 5665 5661 5658 5653 5648 5643 5640 5637 5633 5628 5621 5617 5616 5610 5604 5603 5599 5593 5589 5584 5578 5574 5569 5564 5559 5553 5547 5543 5538 5532 5526
5799 5798 5798 5797 5796 5795 5794 5792 5791 5789 5788 5786 5784 5783 5781 5779 5777 5775 5773 5770 5768 5766 5764 5761 5759 5757 5754 5751 5748 5745 5742 5739 5736 5733 5729 5726 5723 5720 5716 5713 5711 5708 5705 5702 5699 5696 5693 5691 5688 5686 5684 5681 5676 5673 5670 5666 5663 5661 5658 5654 5649 5643 5638 5635 5632 5629 5623 5616 5613 5610 5604 5601 5598 5592 5586 5584 5578 5572 5567 5563 5557 5552 5546 5541 5536 5531 5526 5520
5799 5799 5798 5797 5796 5795 5793 5792 5791 5789 5787 5786 5784 5782 5781 5779 5777 5775 5772 5770 5768 5766 5763 5761 5759 5756 5754 5751 5748 5745 5741 5738 5735 5731 5728 5725 5721 5718 5715 5711 5708 5705 5702 5699 5697 5693 5690 5687 5685 5682 5681 5679 5675 5670 5666 5662 5659 5657 5654 5651 5645 5639 5634 5630 5627 5624 5618 5612 5609 5604 5598 5597 5594 5586 5580 5577 5572 5566 5561 5556 5551 5545 5539 5534 5530 5524 5519 5513
5800 5799 5798 5797 5796 5795 5794 5792 5790 5789 5787 5786 5784 5782 5780 5779 5776 5774 5772 5770 5768 5765 5763 5761 5758 5755 5753 5750 5747 5743 5740 5737 5733 5730 5726 5723 5719 5716 5713 5709 5706 5703 5700 5697 5694 5691 5687 5684 5681 5678 5676 5675 5671 5667 5663 5659 5655 5653 5650 5646 5641 5635 5629 5625 5622 5620 5614 5607 5603 5599 5593 5590 5587 5581 5575 5571 5565 5560 5556 5551 5545 5539 5532 5527 5523 5518 5513 5507
5800 5799 5798 5797 5796 5795 5793 5792 5790 5789 5787 5786 5784 5782 5780 5778 5776 5774 5772 5770 5767 5765 5762 5760 5757 5755 5752 5749 5745 5742 5739 5735 5732 5728 5725 5722 5718 5714 5711 5707 5704 5700 5697 5694 5691 5688 5684 5681 5677 5673 5671 5671 5666 5662 5659 5655 5651 5648 5645 5640 5636 5630 5623 5619 5618 5615 5609 5603 5598 5593 5589 5585 5580 5575 5570 5565 5560 5554 5550 5545 5539 5532 5527 5522 5517 5512 5506 5501